| time (UTC) | temp C | wind direction | speed KPH | gust KPH | rain 1hr cm | rain 24hr cm | rain mn cm | humidity % | barometer mb |
| 20260505093034 | 13 | 126 | 1.6 | 9.7 | 0.00 | 0.00 | 0.00 | 72 | 1014.5 |
| 20260505091537 | 13 | 157 | 4.8 | 12.9 | 0.00 | 0.00 | 0.00 | 71 | 1014.3 |
| 20260505090032 | 13 | 186 | 3.2 | 11.3 | 0.00 | 0.00 | 0.00 | 70 | 1014.1 |
| 20260505084558 | 13 | 161 | 4.8 | 11.3 | 0.00 | 0.00 | 0.00 | 70 | 1014.0 |
| 20260505083057 | 13 | 192 | 3.2 | 9.7 | 0.00 | 0.00 | 0.00 | 68 | 1014.1 |
| 20260505081552 | 13 | 170 | 3.2 | 8.0 | 0.00 | 0.00 | 0.00 | 67 | 1014.1 |
| 20260505080045 | 14 | 121 | 3.2 | 9.7 | 0.00 | 0.00 | 0.00 | 65 | 1013.9 |
| 20260505074535 | 14 | 146 | 4.8 | 9.7 | 0.00 | 0.00 | 0.00 | 63 | 1013.8 |
| 20260505073047 | 15 | 127 | 3.2 | 11.3 | 0.00 | 0.00 | 0.00 | 61 | 1013.7 |
| 20260505071543 | 15 | 185 | 3.2 | 6.4 | 0.00 | 0.00 | 0.00 | 60 | 1013.6 |
| 20260505070042 | 15 | 187 | 1.6 | 8.0 | 0.00 | 0.00 | 0.00 | 59 | 1013.6 |
| 20260505064537 | 15 | 188 | 3.2 | 9.7 | 0.00 | 0.00 | 0.00 | 57 | 1013.6 |
| 20260505063039 | 16 | 157 | 4.8 | 9.7 | 0.00 | 0.00 | 0.00 | 57 | 1013.6 |
| 20260505061533 | 16 | 180 | 4.8 | 11.3 | 0.00 | 0.00 | 0.00 | 56 | 1013.6 |
| 20260505060053 | 16 | 163 | 4.8 | 8.0 | 0.00 | 0.00 | 0.00 | 54 | 1013.7 |
| 20260505054532 | 16 | 138 | 4.8 | 9.7 | 0.00 | 0.00 | 0.00 | 53 | 1013.6 |
| 20260505053037 | 16 | 179 | 4.8 | 11.3 | 0.00 | 0.00 | 0.00 | 52 | 1013.5 |
| 20260505051534 | 16 | 141 | 6.4 | 19.3 | 0.00 | 0.00 | 0.00 | 51 | 1013.7 |
| 20260505041549 | 17 | 161 | 4.8 | 14.5 | 0.00 | 0.00 | 0.00 | 47 | 1013.5 |
| 20260505040036 | 17 | 164 | 8.0 | 16.1 | 0.00 | 0.00 | 0.00 | 46 | 1013.4 |
| 20260505034534 | 18 | 167 | 8.0 | 14.5 | 0.00 | 0.00 | 0.00 | 45 | 1013.4 |
| 20260505033038 | 18 | 150 | 6.4 | 17.7 | 0.00 | 0.00 | 0.00 | 45 | 1013.3 |
| 20260505031539 | 18 | 146 | 8.0 | 17.7 | 0.00 | 0.00 | 0.00 | 44 | 1013.3 |
| 20260505030046 | 19 | 133 | 4.8 | 16.1 | 0.00 | 0.00 | 0.00 | 42 | 1013.2 |
| 20260505024535 | 20 | 158 | 4.8 | 11.3 | 0.00 | 0.00 | 0.00 | 42 | 1013.2 |
| 20260505023034 | 20 | 169 | 4.8 | 11.3 | 0.00 | 0.00 | 0.00 | 42 | 1013.2 |
| 20260505021536 | 20 | 155 | 4.8 | 14.5 | 0.00 | 0.00 | 0.00 | 43 | 1013.2 |
| 20260505020041 | 20 | 174 | 3.2 | 11.3 | 0.00 | 0.00 | 0.00 | 45 | 1013.3 |
| 20260505014559 | 20 | 140 | 4.8 | 16.1 | 0.00 | 0.00 | 0.00 | 45 | 1013.2 |
| 20260505013047 | 20 | 174 | 4.8 | 11.3 | 0.00 | 0.00 | 0.00 | 46 | 1013.0 |
| 20260505011540 | 20 | 155 | 4.8 | 14.5 | 0.00 | 0.00 | 0.00 | 45 | 1012.7 |
| 20260505010043 | 21 | 157 | 4.8 | 11.3 | 0.00 | 0.00 | 0.00 | 45 | 1012.6 |
| 20260505004547 | 21 | 136 | 4.8 | 11.3 | 0.00 | 0.00 | 0.00 | 45 | 1012.5 |
| 20260505003053 | 21 | 132 | 6.4 | 11.3 | 0.00 | 0.00 | 0.00 | 44 | 1012.5 |
| 20260505001541 | 22 | 166 | 4.8 | 9.7 | 0.00 | 0.00 | 0.00 | 43 | 1012.5 |
| 20260505000037 | 22 | 135 | 3.2 | 8.0 | 0.00 | 0.00 | 0.00 | 43 | 1012.4 |
| 20260504234536 | 23 | 137 | 3.2 | 9.7 | 0.00 | 0.00 | 0.00 | 41 | 1012.2 |
| 20260504233036 | 23 | 224 | 4.8 | 11.3 | 0.00 | 0.00 | 0.00 | 40 | 1012.1 |
| 20260504231533 | 24 | 186 | 6.4 | 19.3 | 0.00 | 0.00 | 0.00 | 39 | 1012.0 |
| 20260504230038 | 24 | 172 | 8.0 | 17.7 | 0.00 | 0.00 | 0.00 | 40 | 1011.9 |
| 20260504224537 | 23 | 148 | 3.2 | 11.3 | 0.00 | 0.00 | 0.00 | 40 | 1011.9 |
| 20260504223055 | 23 | 214 | 4.8 | 17.7 | 0.00 | 0.00 | 0.00 | 40 | 1012.0 |
| 20260504221535 | 24 | 213 | 8.0 | 22.5 | 0.00 | 0.00 | 0.00 | 39 | 1012.0 |
| 20260504220035 | 25 | 215 | 6.4 | 19.3 | 0.00 | 0.00 | 0.00 | 39 | 1012.1 |
| 20260504214534 | 25 | 234 | 11.3 | 20.9 | 0.00 | 0.00 | 0.00 | 37 | 1012.1 |
| 20260504213038 | 25 | 205 | 8.0 | 25.7 | 0.00 | 0.00 | 0.00 | 37 | 1012.1 |
| 20260504211603 | 25 | 205 | 6.4 | 20.9 | 0.00 | 0.00 | 0.00 | 38 | 1012.2 |
| 20260504210043 | 25 | 200 | 9.7 | 22.5 | 0.00 | 0.00 | 0.00 | 38 | 1012.1 |
| 20260504204534 | 25 | 180 | 12.9 | 22.5 | 0.00 | 0.00 | 0.00 | 37 | 1012.0 |
| 20260504203033 | 25 | 151 | 12.9 | 20.9 | 0.00 | 0.00 | 0.00 | 36 | 1012.4 |
| 20260504201539 | 25 | 139 | 12.9 | 19.3 | 0.00 | 0.00 | 0.00 | 37 | 1012.5 |
| 20260504200038 | 25 | 198 | 9.7 | 19.3 | 0.00 | 0.00 | 0.00 | 36 | 1012.6 |
| 20260504194544 | 25 | 194 | 6.4 | 17.7 | 0.00 | 0.00 | 0.00 | 36 | 1012.9 |
| 20260504193036 | 24 | 215 | 8.0 | 16.1 | 0.00 | 0.00 | 0.00 | 36 | 1013.2 |
| 20260504191536 | 24 | 217 | 12.9 | 22.5 | 0.00 | 0.00 | 0.00 | 36 | 1013.5 |
| 20260504190043 | 24 | 190 | 9.7 | 17.7 | 0.00 | 0.00 | 0.00 | 36 | 1013.7 |
| 20260504184545 | 24 | 188 | 11.3 | 19.3 | 0.00 | 0.00 | 0.00 | 36 | 1013.7 |
| 20260504183038 | 23 | 183 | 8.0 | 20.9 | 0.00 | 0.00 | 0.00 | 37 | 1013.9 |
| 20260504181538 | 23 | 222 | 11.3 | 20.9 | 0.00 | 0.00 | 0.00 | 37 | 1014.0 |
| 20260504180038 | 23 | 218 | 9.7 | 20.9 | 0.00 | 0.00 | 0.00 | 36 | 1014.0 |
| 20260504174537 | 22 | 215 | 6.4 | 20.9 | 0.00 | 0.00 | 0.00 | 37 | 1014.0 |
| 20260504173034 | 22 | 302 | 6.4 | 17.7 | 0.00 | 0.00 | 0.00 | 37 | 1014.1 |
| 20260504171540 | 22 | 221 | 8.0 | 19.3 | 0.00 | 0.00 | 0.00 | 36 | 1014.4 |